GW0260 Weather Reports


time (UTC)temp
C
wind
direction
speed
KPH
gust
KPH
rain 1hr
cm
rain 24hr
cm
rain mn
cm
humidity
%
barometer
mb
20260507021220 15 254 6.4 8.0 0.00 0.28 0.28 99
20260507020719 15 316 4.8 8.0 0.00 0.28 0.28 99
20260507020214 14 282 4.8 8.0 0.00 0.28 0.28 99
20260507015712 14 268 6.4 12.9 0.00 0.28 0.28 99
20260507015209 14 275 4.8 9.7 0.00 0.28 0.28 99
20260507014706 14 249 0.0 4.8 0.00 0.28 0.28 99
20260507014202 14 216 3.2 3.2 0.00 0.28 0.28 99
20260507013659 14 250 1.6 8.0 0.00 0.28 0.28 99
20260507013156 14 237 3.2 4.8 0.00 0.28 0.28 99
20260507012654 14 233 3.2 9.7 0.00 0.28 0.28 99
20260507012149 14 286 4.8 8.0 0.00 0.28 0.28 99
20260507011647 14 262 1.6 8.0 0.00 0.28 0.28 99
20260507011143 14 209 9.7 16.1 0.00 0.28 0.28 99
20260507010638 14 291 9.7 11.3 0.00 0.28 0.28 99
20260507010134 14 221 9.7 14.5 0.00 0.28 0.28 99
20260507005632 14 294 3.2 9.7 0.00 0.28 0.28 99
20260507005127 14 230 3.2 4.8 0.00 0.28 0.28 99
20260507004624 14 276 4.8 11.3 0.00 0.28 0.28 99
20260507004122 14 324 3.2 4.8 0.00 0.28 0.28 99
20260507003618 14 284 4.8 14.5 0.00 0.28 0.28 99
20260507003113 14 208 6.4 9.7 0.00 0.28 0.28 99
20260507002610 14 222 4.8 8.0 0.00 0.28 0.28 99
20260507002105 14 244 4.8 8.0 0.00 0.28 0.28 99
20260507001603 14 297 3.2 9.7 0.00 0.28 0.28 99
20260507001100 14 288 1.6 8.0 0.00 0.28 0.28 99
20260507000556 14 324 3.2 3.2 0.00 0.28 0.28 99
20260507000052 14 230 3.2 3.2 0.00 0.28 0.28 99
20260506235550 14 349 4.8 4.8 0.00 0.28 0.28 99
20260506235044 14 307 3.2 3.2 0.00 0.28 0.28 99
20260506234542 14 224 1.6 8.0 0.00 0.28 0.28 99
20260506234039 14 344 1.6 4.8 0.00 0.28 0.28 99
20260506233536 14 281 1.6 3.2 0.13 0.28 0.28 99
20260506233033 14 293 1.6 4.8 0.30 0.28 0.28 99
20260506232529 15 216 4.8 4.8 0.00 0.23 0.23 99
20260506232025 15 331 0.0 3.2 0.00 0.23 0.23 99
20260506231522 15 191 4.8 8.0 0.13 0.23 0.23 99
20260506231020 15 235 4.8 9.7 0.13 0.23 0.23 99
20260506230516 15 202 1.6 3.2 0.18 0.20 0.20 99
20260506230014 15 79 1.6 3.2 0.00 0.18 0.18 99
20260506225510 15 245 4.8 11.3 0.00 0.18 0.18 99
20260506225007 15 241 3.2 3.2 0.00 0.18 0.18 99
20260506224504 15 278 0.0 9.7 0.00 0.18 0.18 99
20260506224000 15 270 3.2 3.2 0.00 0.18 0.18 99
20260506223456 15 329 1.6 4.8 0.00 0.18 0.18 99
20260506222953 15 228 3.2 4.8 0.00 0.18 0.18 99
20260506222450 15 219 1.6 4.8 0.13 0.18 0.18 99
20260506221947 15 285 6.4 9.7 0.13 0.18 0.18 99
20260506221444 15 312 4.8 8.0 0.00 0.15 0.15 99
20260506220942 15 198 1.6 3.2 0.00 0.15 0.15 99
20260506220437 15 228 4.8 4.8 0.00 0.15 0.15 99
20260506215934 15 205 3.2 8.0 0.00 0.15 0.15 99
20260506215430 15 229 1.6 4.8 0.00 0.15 0.15 99
20260506214926 15 208 1.6 8.0 0.00 0.15 0.15 99
20260506214423 15 245 1.6 9.7 0.00 0.15 0.15 99
20260506213921 15 334 8.0 11.3 0.00 0.15 0.15 99
20260506213418 15 204 3.2 4.8 0.18 0.15 0.15 99
20260506212915 15 133 4.8 12.9 0.18 0.15 0.15 99
20260506212411 15 274 6.4 9.7 0.00 0.13 0.13 99
20260506211906 15 271 4.8 11.3 0.00 0.13 0.13 99
20260506211403 16 330 3.2 4.8 0.00 0.13 0.13 98
20260506210900 16 285 1.6 16.1 0.00 0.13 0.13 98
20260506210356 15 210 6.4 12.9 0.00 0.13 0.13 98
20260506205854 16 311 3.2 12.9 0.00 0.13 0.13 98
20260506205349 16 260 3.2 16.1 0.00 0.13 0.13 98
20260506204846 16 249 4.8 8.0 0.00 0.13 0.13 98
20260506204344 16 241 1.6 4.8 0.00 0.13 0.13 98
20260506203841 15 192 6.4 11.3 0.00 0.13 0.13 98
20260506203338 15 289 9.7 16.1 0.00 0.13 0.13 98
20260506202835 15 16 1.6 14.5 0.00 0.13 0.13 98
20260506202332 15 235 8.0 12.9 0.00 0.13 0.13 97
20260506201828 16 356 1.6 8.0 0.00 0.13 0.13 98
20260506201326 15 300 0.0 3.2 0.00 0.13 0.13 98
20260506200823 16 292 4.8 8.0 0.00 0.13 0.13 97
20260506200319 16 294 3.2 8.0 0.00 0.13 0.13 97
20260506195815 16 214 6.4 8.0 0.00 0.13 0.13 97
20260506195312 16 286 4.8 14.5 0.00 0.13 0.13 98
20260506194809 16 298 3.2 11.3 0.18 0.13 0.13 98
20260506194305 16 284 1.6 1.6 0.18 0.13 0.13 98
20260506193803 16 216 1.6 1.6 0.13 0.10 0.10 97
20260506193300 16 62 0.0 3.2 0.13 0.10 0.10 96
20260506192756 16 226 4.8 8.0 0.18 0.08 0.08 95
20260506192253 16 258 4.8 9.7 0.18 0.08 0.08 94
20260506191750 16 248 9.7 12.9 0.13 0.05 0.05 92
20260506191246 16 294 8.0 12.9 0.13 0.05 0.05 91
20260506190743 16 276 14.5 22.5 0.00 0.03 0.03 90
20260506190240 17 221 8.0 12.9 0.18 0.03 0.03 89
20260506185737 17 232 4.8 12.9 0.18 0.03 0.03 87
20260506185234 17 190 4.8 11.3 0.00 0.00 0.00 84
20260506184731 18 274 4.8 9.7 0.00 0.00 0.00 81
20260506184228 18 247 4.8 12.9 0.00 0.00 0.00 79
20260506183725 18 227 8.0 14.5 0.00 0.00 0.00 77
20260506183220 19 270 4.8 8.0 0.00 0.00 0.00 76
20260506182718 20 255 9.7 11.3 0.00 0.00 0.00 74
20260506182215 20 298 8.0 12.9 0.00 0.00 0.00 73
20260506181713 20 294 9.7 14.5 0.00 0.00 0.00 71
20260506181210 20 264 12.9 20.9 0.00 0.00 0.00 70
20260506180707 20 281 12.9 16.1 0.00 0.00 0.00 70
20260506180203 20 219 6.4 17.7 0.00 0.00 0.00 69
20260506175659 20 197 11.3 29.0 0.00 0.00 0.00 67
20260506175156 20 322 12.9 17.7 0.00 0.00 0.00 68
20260506174649 21 124 9.7 14.5 0.00 0.00 0.00 67
20260506174145 21 60 6.4 24.1 0.00 0.00 0.00 67
20260506173643 21 261 8.0 12.9 0.00 0.00 0.00 66
20260506173134 21 272 6.4 11.3 0.00 0.00 0.00 66
20260506172631 21 265 12.9 24.1 0.00 0.00 0.00 64
20260506172127 21 265 8.0 24.1 0.00 0.00 0.00 64
20260506171625 21 255 8.0 16.1 0.00 0.00 0.00 63
20260506171123 22 283 6.4 9.7 0.00 0.00 0.00 64
20260506170620 22 324 6.4 12.9 0.00 0.00 0.00 63
20260506170117 22 176 4.8 12.9 0.00 0.00 0.00 64
20260506165615 22 226 8.0 22.5 0.00 0.00 0.00 63
20260506165111 22 283 3.2 11.3 0.00 0.00 0.00 64
20260506164608 21 220 6.4 14.5 0.00 0.00 0.00 64
20260506164106 21 194 8.0 12.9 0.00 0.00 0.00 66
20260506163601 21 253 8.0 17.7 0.00 0.00 0.00 63
20260506163057 21 256 6.4 17.7 0.00 0.00 0.00 64
20260506162554 22 197 11.3 20.9 0.00 0.00 0.00 62
20260506162051 22 309 4.8 12.9 0.00 0.00 0.00 65
20260506161549 21 284 4.8 17.7 0.00 0.00 0.00 65
20260506161045 21 201 11.3 14.5 0.00 0.00 0.00 63
20260506160543 21 273 4.8 14.5 0.00 0.00 0.00 64
20260506160040 21 210 6.4 16.1 0.00 0.00 0.00 64
20260506155539 21 283 8.0 12.9 0.00 0.00 0.00 65
20260506153715 21 254 4.8 4.8 0.00 0.00 0.00 67
20260506153213 21 258 6.4 14.5 0.00 0.00 0.00 68
20260506152709 21 310 4.8 9.7 0.00 0.00 0.00 68
20260506152207 21 175 3.2 17.7 0.00 0.00 0.00 68
20260506151706 21 217 3.2 16.1 0.00 0.00 0.00 69
20260506151202 21 245 19.3 37.0 0.00 0.00 0.00 66
20260506150658 21 267 11.3 27.4 0.00 0.00 0.00 65
20260506150155 21 242 4.8 9.7 0.00 0.00 0.00 68
20260506145652 22 36 1.6 25.7 0.00 0.00 0.00 67
20260506145149 21 249 4.8 11.3 0.00 0.00 0.00 67
20260506144647 21 260 1.6 12.9 0.00 0.00 0.00 69
20260506144143 21 196 6.4 12.9 0.00 0.00 0.00 67
20260506143641 21 357 8.0 16.1 0.00 0.00 0.00 67
20260506143139 21 292 4.8 14.5 0.00 0.00 0.00 69
20260506142637 21 301 6.4 9.7 0.00 0.00 0.00 68
20260506142135 21 269 1.6 3.2 0.00 0.00 0.00 69
20260506141632 21 300 6.4 14.5 0.00 0.00 0.00 70
20260506141130 21 280 3.2 11.3 0.00 0.00 0.00 70
20260506140628 21 245 6.4 20.9 0.00 0.00 0.00 72
20260506140125 21 320 3.2 9.7 0.00 0.00 0.00 73
20260506135622 21 208 8.0 14.5 0.00 0.00 0.00 71
20260506135118 21 291 3.2 4.8 0.00 0.00 0.00 75
20260506134614 21 288 4.8 9.7 0.00 0.00 0.00 73
20260506134110 20 215 6.4 9.7 0.00 0.00 0.00 75
20260506133608 20 286 1.6 4.8 0.00 0.00 0.00 77
20260506133104 19 200 12.9 20.9 0.00 0.00 0.00 76
20260506132602 19 204 4.8 11.3 0.00 0.00 0.00 76
20260506132059 19 249 4.8 8.0 0.00 0.00 0.00 77
20260506131556 19 204 3.2 8.0 0.00 0.00 0.00 77
20260506131052 19 269 4.8 4.8 0.00 0.00 0.00 78
20260506130549 18 215 6.4 9.7 0.00 0.00 0.00 77
20260506130047 19 261 4.8 12.9 0.00 0.00 0.00 77
20260506125545 20 273 4.8 12.9 0.00 0.00 0.00 76
20260506125042 19 259 3.2 9.7 0.00 0.00 0.00 78
20260506124540 18 285 8.0 11.3 0.00 0.00 0.00 78
20260506124038 18 293 11.3 17.7 0.00 0.00 0.00 79
20260506123535 17 184 3.2 12.9 0.00 0.00 0.00 81
20260506123034 17 324 8.0 12.9 0.00 0.00 0.00 82
20260506122530 17 312 4.8 16.1 0.00 0.00 0.00 81
20260506122028 17 305 4.8 14.5 0.00 0.00 0.00 82
20260506121525 17 220 6.4 9.7 0.00 0.00 0.00 83
20260506121021 17 277 3.2 20.9 0.00 0.00 0.00 83
20260506120519 17 263 6.4 9.7 0.00 0.00 0.00 83
20260506120017 17 77 1.6 9.7 0.00 0.00 0.00 83
20260506115514 17 152 4.8 8.0 0.00 0.00 0.00 84
20260506115013 16 286 9.7 12.9 0.00 0.00 0.00 85
20260506114509 16 216 3.2 11.3 0.00 0.00 0.00 85
20260506114008 16 283 4.8 8.0 0.00 0.00 0.00 86
20260506113505 16 288 4.8 12.9 0.00 0.00 0.00 86
20260506113002 16 237 1.6 8.0 0.00 0.00 0.00 86
20260506112459 16 294 4.8 11.3 0.00 0.00 0.00 86
20260506111956 16 282 4.8 8.0 0.00 0.00 0.00 86
20260506111454 16 237 3.2 11.3 0.00 0.00 0.00 87
20260506110951 16 272 4.8 11.3 0.00 0.00 0.00 87
20260506110449 16 295 1.6 8.0 0.00 0.00 0.00 86
20260506105945 16 256 4.8 11.3 0.00 0.00 0.00 87
20260506105442 15 284 1.6 9.7 0.00 0.00 0.00 88
20260506104939 15 310 1.6 11.3 0.00 0.00 0.00 88
20260506104437 15 259 3.2 4.8 0.00 0.00 0.00 88
20260506103935 15 220 3.2 3.2 0.00 0.00 0.00 89
20260506103432 15 329 1.6 4.8 0.00 0.00 0.00 89
20260506102929 15 159 3.2 12.9 0.00 0.00 0.00 89
20260506102427 15 220 4.8 4.8 0.00 0.00 0.00 89
20260506101924 15 222 3.2 3.2 0.00 0.00 0.00 89
20260506101420 15 217 3.2 3.2 0.00 0.00 0.00 89
20260506100918 15 324 4.8 8.0 0.00 0.00 0.00 90
20260506100416 15 306 3.2 3.2 0.00 0.00 0.00 89
20260506095914 15 290 6.4 9.7 0.00 0.00 0.00 89
20260506095412 15 259 3.2 8.0 0.00 0.00 0.00 89
20260506094908 15 310 0.0 3.2 0.00 0.00 0.00 90
20260506094407 15 343 0.0 4.8 0.00 0.00 0.00 89
20260506093904 15 301 4.8 9.7 0.00 0.00 0.00 89
20260506093401 15 196 4.8 9.7 0.00 0.00 0.00 89
20260506092859 15 224 1.6 4.8 0.00 0.00 0.00 89
20260506092357 15 242 6.4 9.7 0.00 0.00 0.00 89
20260506091853 15 283 4.8 4.8 0.00 0.00 0.00 89
20260506091351 15 293 3.2 3.2 0.00 0.00 0.00 88
20260506090848 15 206 1.6 3.2 0.00 0.00 0.00 88
20260506090346 15 63 1.6 3.2 0.00 0.00 0.00 88
20260506085842 15 258 4.8 9.7 0.00 0.00 0.00 88
20260506085338 15 233 3.2 12.9 0.00 0.00 0.00 88
20260506084835 15 42 1.6 1.6 0.00 0.00 0.00 88
20260506084332 15 238 1.6 3.2 0.00 0.00 0.00 87
20260506083829 15 260 1.6 4.8 0.00 0.00 0.00 87
20260506083326 15 316 4.8 8.0 0.00 0.00 0.00 87
20260506082824 15 161 3.2 11.3 0.00 0.00 0.00 87
20260506082320 15 304 6.4 17.7 0.00 0.00 0.00 86
20260506081816 15 211 3.2 3.2 0.00 0.00 0.00 86
20260506081314 15 262 1.6 3.2 0.00 0.00 0.00 86
20260506080812 15 169 4.8 8.0 0.00 0.00 0.00 85
20260506080308 15 188 4.8 14.5 0.00 0.00 0.00 84
20260506073252 16 273 3.2 8.0 0.00 0.00 0.00 83
20260506072749 16 310 1.6 8.0 0.00 0.00 0.00 83
20260506072246 16 216 4.8 8.0 0.00 0.00 0.00 82
20260506071744 16 274 9.7 12.9 0.00 0.00 0.00 82
20260506071242 16 325 1.6 3.2 0.00 0.00 0.00 82
20260506070738 16 191 1.6 11.3 0.00 0.00 0.00 81
20260506070235 16 242 8.0 12.9 0.00 0.00 0.00 81
20260506062212 17 231 3.2 20.9 0.00 0.00 0.00 78
20260506061708 17 271 8.0 14.5 0.00 0.00 0.00 78
20260506061206 17 263 1.6 8.0 0.00 0.00 0.00 77
20260506060704 17 215 4.8 16.1 0.00 0.00 0.00 76
20260506060201 17 298 8.0 14.5 0.00 0.00 0.00 75
20260506051133 17 250 8.0 12.9 0.00 0.00 0.00 73
20260506050631 17 287 12.9 20.9 0.00 0.00 0.00 72
20260506050128 17 220 9.7 14.5 0.00 0.00 0.00 72
20260506045121 17 249 9.7 17.7 0.00 0.00 0.00 71
20260506044619 17 280 4.8 11.3 0.00 0.00 0.00 72
20260506044116 17 335 8.0 14.5 0.00 0.00 0.00 72
20260506043613 17 231 9.7 17.7 0.00 0.00 0.00 72
20260506043111 17 245 4.8 8.0 0.00 0.00 0.00 72
20260506042610 17 259 4.8 9.7 0.00 0.00 0.00 71
20260506042107 17 327 4.8 9.7 0.00 0.00 0.00 71
20260506041606 17 276 8.0 11.3 0.00 0.00 0.00 70
20260506041102 17 259 8.0 20.9 0.00 0.00 0.00 70
20260506040600 17 225 6.4 16.1 0.00 0.00 0.00 71
20260506040056 17 304 1.6 9.7 0.00 0.00 0.00 70
20260506035553 17 280 12.9 16.1 0.00 0.00 0.00 70
20260506035050 17 298 6.4 9.7 0.00 0.00 0.00 70
20260506034547 17 282 4.8 14.5 0.00 0.00 0.00 69
20260506034044 17 303 8.0 11.3 0.00 0.00 0.00 69
20260506033541 17 329 8.0 12.9 0.00 0.00 0.00 70
20260506033038 17 298 8.0 16.1 0.00 0.00 0.00 69
20260506032536 17 67 6.4 12.9 0.00 0.00 0.00 70
20260506032032 17 237 4.8 4.8 0.00 0.00 0.00 70
20260506031530 17 255 8.0 12.9 0.00 0.00 0.00 70
20260506031027 17 191 9.7 12.9 0.00 0.00 0.00 69
20260506030525 17 294 3.2 9.7 0.00 0.00 0.00 69
20260506030022 17 218 4.8 12.9 0.00 0.00 0.00 69
20260506025519 17 298 9.7 12.9 0.00 0.00 0.00 69
20260506025015 17 199 8.0 22.5 0.00 0.00 0.00 68
20260506024512 17 279 8.0 12.9 0.00 0.00 0.00 69
20260506024008 17 270 3.2 4.8 0.00 0.00 0.00 69
20260506023504 17 257 4.8 14.5 0.00 0.00 0.00 68
20260506023002 17 214 4.8 25.7 0.00 0.00 0.00 68
20260506022459 17 230 14.5 22.5 0.00 0.00 0.00 68
20260506021957 17 305 9.7 14.5 0.00 0.00 0.00 69
20260506021454 17 269 8.0 12.9 0.00 0.00 0.00 68